PH10A EBAW-EGJJ

Flight info

Callsign PH10A
Flight time N/A
Altitude 42000
Route NIK N872 CIV M617 CMB R50 CAN G274 BEVAV
Aircraft PC24/M-SBDGIRWY/LB2

Departure

Time 2026-04-15 08:49
Airport Antwerp International Airport (Deurne) (EBAW)

Arrival

Time N/A
Airport Jersey Airport (EGJJ)
Time Latitude Longitude Altitude Speed Heading
2026-04-15 08:32 51.18716 4.45498 34 ft 0 kts 36°
2026-04-15 08:46 51.18718 4.45498 34 ft 1 kts 20°
2026-04-15 08:46 51.18722 4.45488 34 ft 2 kts 266°
2026-04-15 08:46 51.18719 4.45429 34 ft 9 kts 320°
2026-04-15 08:46 51.18766 4.45469 34 ft 11 kts 51°
2026-04-15 08:47 51.18849 4.45454 34 ft 15 kts 345°
2026-04-15 08:47 51.18956 4.45396 34 ft 17 kts 39°
2026-04-15 08:47 51.19049 4.45505 34 ft 18 kts 321°
2026-04-15 08:47 51.19095 4.45435 34 ft 0 kts 313°
2026-04-15 08:48 51.19113 4.45415 34 ft 9 kts 324°
2026-04-15 08:48 51.19186 4.45328 36 ft 11 kts 336°
2026-04-15 08:48 51.19209 4.45381 37 ft 13 kts 110°
2026-04-15 08:49 51.19085 4.45926 38 ft 99 kts 110°
2026-04-15 08:49 51.18743 4.47384 110 ft 174 kts 111°
2026-04-15 08:49 51.18337 4.49447 742 ft 212 kts 107°
2026-04-15 08:49 51.17812 4.51829 1261 ft 251 kts 126°
2026-04-15 08:50 51.16362 4.53575 1482 ft 256 kts 163°
2026-04-15 08:50 51.14789 4.53542 1680 ft 208 kts 202°
2026-04-15 08:50 51.13792 4.52254 1858 ft 172 kts 225°
2026-04-15 08:50 51.13142 4.50627 2045 ft 171 kts 234°
2026-04-15 08:51 51.12367 4.49119 2264 ft 181 kts 225°
2026-04-15 08:51 51.11673 4.47288 2523 ft 204 kts 245°
2026-04-15 08:51 51.11382 4.45018 2775 ft 218 kts 264°
2026-04-15 08:51 51.11476 4.42487 3040 ft 236 kts 270°
2026-04-15 08:52 51.11711 4.39848 3350 ft 248 kts 283°
2026-04-15 08:52 51.12329 4.37151 3732 ft 264 kts 287°
2026-04-15 08:52 51.12956 4.34340 4096 ft 272 kts 286°
2026-04-15 08:52 51.13587 4.31485 4470 ft 285 kts 287°
2026-04-15 08:53 51.14151 4.28415 4848 ft 293 kts 276°
2026-04-15 08:53 51.14212 4.25169 5363 ft 296 kts 263°
2026-04-15 08:53 51.13772 4.22001 5868 ft 293 kts 248°
2026-04-15 08:53 51.12851 4.19098 6385 ft 294 kts 234°
2026-04-15 08:54 51.11499 4.16651 6875 ft 295 kts 220°
2026-04-15 08:54 51.09794 4.14821 7361 ft 298 kts 207°
2026-04-15 08:54 51.07852 4.13640 7857 ft 298 kts 199°
2026-04-15 08:54 51.05893 4.12569 8358 ft 302 kts 200°
2026-04-15 08:55 51.03919 4.11475 8866 ft 302 kts 200°
2026-04-15 08:55 51.01898 4.10376 9392 ft 308 kts 200°
2026-04-15 08:55 50.99861 4.09270 9921 ft 313 kts 200°
2026-04-15 08:55 50.97797 4.08140 10421 ft 313 kts 200°
2026-04-15 08:56 50.95733 4.07012 10900 ft 316 kts 200°
2026-04-15 08:56 50.93641 4.05873 11392 ft 318 kts 200°
2026-04-15 08:56 50.91539 4.04727 11888 ft 322 kts 200°
2026-04-15 08:56 50.89414 4.03573 12394 ft 323 kts 200°
2026-04-15 08:57 50.87272 4.02366 12907 ft 328 kts 203°
2026-04-15 08:57 50.85161 4.00985 13432 ft 330 kts 204°
2026-04-15 08:57 50.83025 3.99603 13961 ft 332 kts 203°
2026-04-15 08:57 50.80874 3.98240 14424 ft 335 kts 203°
2026-04-15 08:58 50.78694 3.96850 14902 ft 339 kts 204°
2026-04-15 08:58 50.74309 3.94041 15874 ft 345 kts 204°
2026-04-15 08:58 50.72073 3.92617 16377 ft 346 kts 204°
2026-04-15 08:59 50.69821 3.91182 16892 ft 351 kts 204°
2026-04-15 08:59 50.67548 3.89734 17404 ft 354 kts 204°
2026-04-15 08:59 50.65254 3.88275 17935 ft 357 kts 204°
2026-04-15 08:59 50.62931 3.86798 18468 ft 361 kts 204°
2026-04-15 09:00 50.60591 3.85313 18935 ft 364 kts 204°
2026-04-15 09:00 50.58283 3.83675 19382 ft 364 kts 213°
2026-04-15 09:00 50.56336 3.81126 19851 ft 364 kts 228°
2026-04-15 09:00 50.54760 3.78071 20335 ft 365 kts 233°
2026-04-15 09:01 50.53182 3.74924 20829 ft 368 kts 233°
2026-04-15 09:01 50.51589 3.71752 21332 ft 372 kts 233°
2026-04-15 09:01 50.49971 3.68545 21821 ft 375 kts 233°
2026-04-15 09:01 50.48337 3.65315 21974 ft 379 kts 233°
2026-04-15 09:02 50.46699 3.62082 21964 ft 378 kts 233°
2026-04-15 09:02 50.45065 3.58844 21969 ft 378 kts 233°
2026-04-15 09:02 50.43437 3.55617 21969 ft 377 kts 233°
2026-04-15 09:02 50.41827 3.52432 21968 ft 376 kts 233°
2026-04-15 09:03 50.40200 3.49224 21965 ft 376 kts 233°
2026-04-15 09:03 50.38570 3.46013 21966 ft 377 kts 233°
2026-04-15 09:03 50.36938 3.42797 21962 ft 376 kts 233°
2026-04-15 09:03 50.35306 3.39587 21964 ft 377 kts 233°
2026-04-15 09:04 50.33668 3.36371 21966 ft 378 kts 233°
2026-04-15 09:04 50.32031 3.33161 21967 ft 377 kts 233°
2026-04-15 09:04 50.30403 3.29970 21952 ft 376 kts 232°
2026-04-15 09:04 50.28765 3.26764 21959 ft 377 kts 233°
2026-04-15 09:05 50.27125 3.23559 21958 ft 377 kts 232°
2026-04-15 09:05 50.25490 3.20366 21965 ft 373 kts 232°
2026-04-15 09:05 50.23890 3.17183 21956 ft 372 kts 236°
2026-04-15 09:05 50.22846 3.13549 21964 ft 374 kts 253°
2026-04-15 09:06 50.22423 3.09558 21951 ft 371 kts 264°
2026-04-15 09:06 50.22168 3.05539 21964 ft 372 kts 264°
2026-04-15 09:06 50.21906 3.01521 21965 ft 371 kts 264°
2026-04-15 09:06 50.21634 2.97515 21965 ft 370 kts 263°
2026-04-15 09:07 50.21360 2.93509 21955 ft 370 kts 264°
2026-04-15 09:07 50.21087 2.89511 21955 ft 369 kts 263°
2026-04-15 09:07 50.20817 2.85570 21956 ft 369 kts 263°
2026-04-15 09:07 50.20543 2.81586 21960 ft 368 kts 263°
2026-04-15 09:08 50.20267 2.77612 21965 ft 368 kts 263°
2026-04-15 09:08 50.19989 2.73632 21960 ft 367 kts 263°
2026-04-15 09:08 50.19712 2.69672 21967 ft 367 kts 263°
2026-04-15 09:08 50.19434 2.65716 21968 ft 367 kts 263°
2026-04-15 09:09 50.19154 2.61763 21963 ft 366 kts 263°
2026-04-15 09:09 50.18872 2.57810 21965 ft 366 kts 263°
2026-04-15 09:09 50.18594 2.53912 21958 ft 366 kts 263°
2026-04-15 09:09 50.18311 2.49955 21964 ft 366 kts 263°
2026-04-15 09:10 50.18028 2.46015 21965 ft 366 kts 263°
2026-04-15 09:10 50.17743 2.42066 21959 ft 365 kts 263°
2026-04-15 09:10 50.17459 2.38126 21958 ft 365 kts 263°
2026-04-15 09:10 50.17171 2.34183 21955 ft 365 kts 263°
2026-04-15 09:11 50.16884 2.30243 21945 ft 365 kts 263°
2026-04-15 09:11 50.16595 2.26309 21955 ft 365 kts 262°
2026-04-15 09:11 50.16304 2.22371 21948 ft 365 kts 262°
2026-04-15 09:11 50.16017 2.18504 21975 ft 355 kts 262°
2026-04-15 09:12 50.15752 2.14907 21942 ft 311 kts 262°
2026-04-15 09:12 50.15518 2.11760 21922 ft 275 kts 262°
2026-04-15 09:12 50.15306 2.08950 21918 ft 245 kts 262°
2026-04-15 09:12 50.15116 2.06438 21916 ft 221 kts 262°
2026-04-15 09:13 50.14944 2.04166 21915 ft 201 kts 261°
2026-04-15 09:13 50.14788 2.02092 21916 ft 184 kts 261°
2026-04-15 09:13 50.14644 2.00206 21913 ft 170 kts 261°
2026-04-15 09:13 50.14510 1.98447 21911 ft 157 kts 261°
2026-04-15 09:14 50.14386 1.96808 21912 ft 154 kts 261°
2026-04-15 09:14 50.14240 1.94980 21989 ft 188 kts 261°
2026-04-15 09:14 50.14072 1.92775 22144 ft 220 kts 261°
2026-04-15 09:14 50.13879 1.90244 22204 ft 251 kts 262°
2026-04-15 09:15 50.13668 1.87479 22157 ft 250 kts 262°
2026-04-15 09:15 50.13310 1.84956 22012 ft 229 kts 250°
2026-04-15 09:15 50.12695 1.82770 21929 ft 210 kts 243°
2026-04-15 09:15 50.12095 1.80802 21916 ft 192 kts 244°
2026-04-15 09:16 50.11561 1.79020 21912 ft 176 kts 244°
2026-04-15 09:16 50.11060 1.77363 21909 ft 162 kts 243°
2026-04-15 09:16 50.10598 1.75846 21906 ft 149 kts 243°
2026-04-15 09:16 50.10147 1.74361 21941 ft 164 kts 243°
2026-04-15 09:17 50.09600 1.72570 22042 ft 200 kts 244°
2026-04-15 09:17 50.08960 1.70466 22211 ft 229 kts 244°
2026-04-15 09:17 50.08228 1.68058 22201 ft 259 kts 244°
2026-04-15 09:17 50.07487 1.65618 22106 ft 238 kts 244°
2026-04-15 09:18 50.06806 1.63381 21952 ft 220 kts 244°
2026-04-15 09:18 50.06177 1.61320 21921 ft 201 kts 243°
2026-04-15 09:18 50.05603 1.59444 21914 ft 183 kts 243°
2026-04-15 09:18 50.05080 1.57731 21913 ft 168 kts 243°
2026-04-15 09:19 50.04598 1.56158 21913 ft 155 kts 243°
2026-04-15 09:19 50.04154 1.54708 21910 ft 147 kts 243°
2026-04-15 09:19 50.03676 1.53151 21975 ft 177 kts 243°
2026-04-15 09:19 50.03092 1.51255 22134 ft 210 kts 244°
2026-04-15 09:20 50.02423 1.49067 22303 ft 240 kts 243°
2026-04-15 09:20 50.01664 1.46597 22267 ft 254 kts 244°
2026-04-15 09:20 50.00945 1.44251 22144 ft 233 kts 243°
2026-04-15 09:20 50.00273 1.42062 21979 ft 217 kts 243°
2026-04-15 09:21 49.99647 1.40030 21921 ft 199 kts 243°
2026-04-15 09:21 49.99078 1.38183 21914 ft 181 kts 243°
2026-04-15 09:21 49.98555 1.36491 21919 ft 166 kts 243°
2026-04-15 09:21 49.98079 1.34941 21915 ft 152 kts 242°
2026-04-15 09:22 49.97637 1.33513 21909 ft 142 kts 242°
2026-04-15 09:22 49.97171 1.32016 21965 ft 171 kts 242°
2026-04-15 09:22 49.96802 1.30831 22060 ft 195 kts 242°
2026-04-15 09:22 49.96172 1.28793 22271 ft 224 kts 243°
2026-04-15 09:23 49.95448 1.26451 22270 ft 256 kts 243°
2026-04-15 09:23 49.94704 1.24039 22178 ft 235 kts 243°
2026-04-15 09:23 49.94022 1.21835 22021 ft 218 kts 243°
2026-04-15 09:23 49.93388 1.19790 21924 ft 201 kts 243°
2026-04-15 09:24 49.92807 1.17921 21917 ft 183 kts 242°
2026-04-15 09:24 49.92201 1.16297 21913 ft 166 kts 233°
2026-04-15 09:24 49.91566 1.14916 21912 ft 152 kts 235°
2026-04-15 09:24 49.90990 1.13619 21909 ft 141 kts 234°
2026-04-15 09:25 49.90373 1.12244 21974 ft 171 kts 234°
2026-04-15 09:25 49.89631 1.10597 22106 ft 204 kts 234°
2026-04-15 09:25 49.88762 1.08663 22237 ft 234 kts 234°
2026-04-15 09:25 49.87776 1.06471 22208 ft 250 kts 234°
2026-04-15 09:26 49.86827 1.04364 22082 ft 228 kts 234°
2026-04-15 09:26 49.85953 1.02424 21930 ft 211 kts 234°
2026-04-15 09:26 49.85149 1.00643 21914 ft 192 kts 234°
2026-04-15 09:26 49.84421 0.99030 21909 ft 175 kts 234°
2026-04-15 09:27 49.83754 0.97554 21907 ft 160 kts 234°
2026-04-15 09:27 49.83143 0.96205 21905 ft 147 kts 234°
2026-04-15 09:27 49.82570 0.94937 21916 ft 148 kts 234°
2026-04-15 09:27 49.81906 0.93473 22001 ft 185 kts 234°
2026-04-15 09:28 49.81105 0.91705 22193 ft 215 kts 234°
2026-04-15 09:28 49.80201 0.89707 22272 ft 244 kts 234°
2026-04-15 09:28 49.79264 0.87636 22190 ft 224 kts 234°
2026-04-15 09:28 49.78402 0.85737 22029 ft 207 kts 233°
2026-04-15 09:29 49.77604 0.83979 21913 ft 192 kts 233°
2026-04-15 09:29 49.76873 0.82370 21905 ft 174 kts 233°
2026-04-15 09:29 49.76210 0.80912 21902 ft 158 kts 233°
2026-04-15 09:29 49.75605 0.79581 21901 ft 145 kts 233°
2026-04-15 09:30 49.75047 0.78358 21902 ft 137 kts 233°
2026-04-15 09:30 49.74436 0.77023 21974 ft 171 kts 233°
2026-04-15 09:30 49.73681 0.75367 22113 ft 204 kts 233°
2026-04-15 09:30 49.72804 0.73444 22206 ft 235 kts 234°
2026-04-15 09:31 49.71823 0.71289 22160 ft 240 kts 234°
2026-04-15 09:31 49.70903 0.69268 22026 ft 220 kts 233°
2026-04-15 09:31 49.70067 0.67438 21910 ft 202 kts 233°
2026-04-15 09:31 49.69296 0.65752 21902 ft 183 kts 233°
2026-04-15 09:32 49.68596 0.64221 21898 ft 166 kts 233°
2026-04-15 09:32 49.67960 0.62833 21896 ft 151 kts 233°
2026-04-15 09:32 49.67380 0.61564 21893 ft 138 kts 233°
2026-04-15 09:32 49.66817 0.60344 21924 ft 150 kts 233°
2026-04-15 09:33 49.66135 0.58861 22020 ft 188 kts 233°
2026-04-15 09:33 49.65322 0.57089 22237 ft 216 kts 233°
2026-04-15 09:33 49.64387 0.55051 22242 ft 249 kts 233°
2026-04-15 09:33 49.63408 0.52912 22156 ft 233 kts 233°
2026-04-15 09:34 49.62519 0.50977 22002 ft 214 kts 233°